Weather History for Naples, FL

Change the Weather History Date:

Sunday, April 7, 2013

  Actual Average Record
Temperature  
Mean Temperature 73 °F 72 °F  
Max Temperature 84 °F 82 °F 90 °F (2011)
Min Temperature 61 °F 62 °F 45 °F (1974)
Degree Days  
Heating Degree Days 0 0  
Month to date heating degree days 0 0  
Since 1 July heating degree days 182 256  
Cooling Degree Days 8 7  
Month to date cooling degree days 49 49  
Year to date cooling degree days 440 416  
Growing Degree Days 22 (Base 50)    
Moisture  
Dew Point 60 °F    
Average Humidity 67    
Maximum Humidity 97    
Minimum Humidity 37    
Precipitation  
Precipitation T in 0.08 in 0.97 in (1991)
Month to date precipitation 0.91 0.57  
Year to date precipitation 3.35 6.90  
Snow  
Snow 0.00 in - - ()
Month to date snowfall 0.0  
Since 1 July snowfall 0.0  
Snow Depth 0.00 in    
Sea Level Pressure  
Sea Level Pressure 30.07 in    
Wind  
Wind Speed 7 mph (ENE)    
Max Wind Speed 16 mph    
Max Gust Speed 20 mph    
Visibility 10 miles    
Events      
T = Trace of Precipitation, MM = Missing Value Source: NWS Daily Summary

Daily Weather History Graph

Daily Weather History Graph

Search for Another Location

Airport:

Trip Planner

Search our weather history database for the weather conditions in past years. The results will help you decide how hot, cold, wet, or windy it might be!

Date:

Astronomy

Apr. 07, 2013 Rise Set
Actual Time 7:11 AM EDT 7:46 PM EDT
Civil Twilight 6:48 AM EDT 8:10 PM EDT
Nautical Twilight 6:20 AM EDT 8:37 PM EDT
Astronomical Twilight 5:53 AM EDT 9:05 PM EDT
Moon 5:13 AM EDT (4/7) 5:29 PM EDT (4/7)
Length of Visible Light 13h 22m
Length of Day
12h 35m
Waning Crescent, 8% of the Moon is Illuminated
Apr 7
Waning Crescent
Apr 10
New
Apr 18
First Quarter
Apr 25
Full
May 2
Last Quarter

Hourly Weather History & Observations

Time (EDT) Temp. Heat Index Dew Point Humidity Pressure Visibility Wind Dir Wind Speed Gust Speed Precip Events Conditions
12:53 AM 64.9 °F - 57.9 °F 78% 30.09 in 10.0 mi Calm Calm - N/A   Clear
1:53 AM 64.0 °F - 57.9 °F 80% 30.07 in 10.0 mi Calm Calm - N/A   Clear
2:53 AM 62.1 °F - 57.9 °F 86% 30.05 in 10.0 mi NE 3.5 mph - N/A   Scattered Clouds
3:53 AM 62.1 °F - 57.9 °F 86% 30.04 in 10.0 mi NE 4.6 mph - N/A   Clear
4:53 AM 62.1 °F - 59.0 °F 90% 30.04 in 10.0 mi NE 3.5 mph - N/A   Clear
5:53 AM 61.0 °F - 59.0 °F 93% 30.03 in 10.0 mi NE 5.8 mph - N/A   Clear
6:53 AM 61.0 °F - 59.0 °F 93% 30.06 in 10.0 mi NE 6.9 mph - N/A   Clear
7:53 AM 63.0 °F - 60.1 °F 90% 30.07 in 8.0 mi NE 4.6 mph - N/A   Clear
8:53 AM 66.9 °F - 62.1 °F 84% 30.10 in 9.0 mi ENE 6.9 mph - N/A   Clear
9:53 AM 72.0 °F - 62.1 °F 71% 30.12 in 10.0 mi East 11.5 mph - N/A   Clear
10:53 AM 77.0 °F - 62.1 °F 60% 30.12 in 10.0 mi East 13.8 mph - N/A   Mostly Cloudy
11:53 AM 80.1 °F 81.1 °F 61.0 °F 52% 30.12 in 10.0 mi East 10.4 mph - N/A   Partly Cloudy
12:53 PM 81.0 °F 80.8 °F 55.9 °F 42% 30.10 in 10.0 mi ENE 8.1 mph - N/A   Scattered Clouds
1:53 PM 84.0 °F 83.0 °F 55.9 °F 38% 30.08 in 10.0 mi NE 8.1 mph - N/A   Partly Cloudy
2:53 PM 80.1 °F 80.9 °F 60.1 °F 50% 30.06 in 10.0 mi WSW 11.5 mph - N/A   Mostly Cloudy
3:53 PM 82.0 °F 82.0 °F 57.9 °F 44% 30.05 in 10.0 mi WNW 11.5 mph - N/A   Mostly Cloudy
4:53 PM 80.1 °F 81.1 °F 61.0 °F 52% 30.04 in 10.0 mi West 8.1 mph - N/A   Scattered Clouds
5:53 PM 80.1 °F 80.6 °F 57.9 °F 47% 30.04 in 10.0 mi WNW 6.9 mph - N/A   Mostly Cloudy
6:53 PM 79.0 °F - 61.0 °F 54% 30.04 in 10.0 mi ESE 9.2 mph - N/A   Overcast
7:53 PM 75.9 °F - 62.1 °F 62% 30.05 in 10.0 mi SE 10.4 mph - N/A   Overcast
8:53 PM 73.9 °F - 64.9 °F 73% 30.07 in 10.0 mi Calm Calm - 0.00 in   Overcast
9:53 PM 72.0 °F - 64.9 °F 78% 30.10 in 10.0 mi SE 6.9 mph - 0.00 in   Overcast
10:53 PM 70.0 °F - 66.0 °F 87% 30.10 in 10.0 mi Calm Calm - 0.00 in   Overcast
11:53 PM 71.1 °F - 63.0 °F 75% 30.10 in 10.0 mi East 8.1 mph - N/A   Overcast